West Bend, WI

5:26 AM CST on December 11, 2019 (GMT -0600)
West Bend Municipal

Weather History for KETB - July, 2019

Change the Weather History Date:

Monday, July 22, 2019

  Actual Average Record
Temperature  
Mean Temperature 66 °F -  
Max Temperature 73 °F 79 °F 98 °F (1940)
Min Temperature 60 °F 59 °F 44 °F (1947)
Cooling Degree Days 2    
Growing Degree Days 16 (Base 50)    
Moisture  
Dew Point 51 °F    
Average Humidity 58    
Maximum Humidity 88    
Minimum Humidity 38    
Precipitation  
Precipitation 0.00 in - - ()
Sea Level Pressure  
Sea Level Pressure 30.09 in    
Wind  
Wind Speed 8 mph (North)    
Max Wind Speed 15 mph    
Max Gust Speed 22 mph    
Visibility 10 miles    
Events      
Averages and records for this station are not official NWS values.
T = Trace of Precipitation, MM = Missing Value Source: NWS Daily Summary

Daily Weather History Graph

Daily Weather History Graph

Search for Another Location

Airport or City:

Astronomy

Jul. 22, 2019 Rise Set
Actual Time 5:31 AM CDT 8:25 PM CDT
Civil Twilight 4:58 AM CDT 8:59 PM CDT
Nautical Twilight 4:15 AM CDT 9:41 PM CDT
Astronomical Twilight 3:25 AM CDT 10:31 PM CDT
Moon 11:37 PM CDT (7/22) 10:56 AM CDT (7/22)
Length of Visible Light 16h 01m
Length of Day
14h 53m
Waning Gibbous, 72% of the Moon is Illuminated
Jul 22
Waning Gibbous
Jul 24
Last Quarter
Jul 31
New
Aug 7
First Quarter
Aug 15
Full

Hourly Weather History & Observations

Time (CDT) Temp. Dew Point Humidity Pressure Visibility Wind Dir Wind Speed Gust Speed Precip Events Conditions
12:15 AM 62.6 °F 59.0 °F 88% 30.04 in 10.0 mi NE 9.2 mph - N/A   Scattered Clouds
12:35 AM 62.6 °F 59.0 °F 88% 30.05 in 10.0 mi NE 6.9 mph - N/A   Scattered Clouds
12:55 AM 62.6 °F 57.2 °F 82% 30.05 in 10.0 mi NE 5.8 mph - N/A   Mostly Cloudy
1:15 AM 62.6 °F 57.2 °F 82% 30.04 in 10.0 mi NE 8.1 mph - N/A   Mostly Cloudy
1:35 AM 62.6 °F 57.2 °F 82% 30.05 in 10.0 mi NE 10.4 mph - N/A   Scattered Clouds
1:55 AM 62.6 °F 57.2 °F 82% 30.05 in 10.0 mi NE 8.1 mph - N/A   Mostly Cloudy
2:15 AM 62.6 °F 55.4 °F 77% 30.05 in 10.0 mi NE 6.9 mph - N/A   Overcast
2:35 AM 62.6 °F 57.2 °F 82% 30.05 in 10.0 mi NNE 8.1 mph - N/A   Overcast
2:55 AM 62.6 °F 57.2 °F 82% 30.06 in 10.0 mi NNE 6.9 mph - N/A   Overcast
3:15 AM 62.6 °F 57.2 °F 82% 30.06 in 10.0 mi North 8.1 mph - N/A   Overcast
3:35 AM 62.6 °F 57.2 °F 82% 30.06 in 10.0 mi NNE 6.9 mph - N/A   Overcast
3:55 AM 62.6 °F 55.4 °F 77% 30.06 in 10.0 mi NNE 5.8 mph - N/A   Overcast
4:15 AM 62.6 °F 53.6 °F 72% 30.06 in 10.0 mi NNE 3.5 mph - N/A   Overcast
4:35 AM 62.6 °F 53.6 °F 72% 30.06 in 10.0 mi NNE 8.1 mph - N/A   Overcast
4:55 AM 60.8 °F 53.6 °F 77% 30.07 in 10.0 mi NNE 5.8 mph - N/A   Overcast
5:15 AM 60.8 °F 53.6 °F 77% 30.07 in 10.0 mi North 4.6 mph - N/A   Overcast
5:35 AM 60.8 °F 53.6 °F 77% 30.08 in 10.0 mi North 5.8 mph - N/A   Overcast
5:55 AM 60.8 °F 51.8 °F 72% 30.08 in 10.0 mi North 5.8 mph - N/A   Overcast
6:15 AM 60.8 °F 51.8 °F 72% 30.08 in 10.0 mi North 5.8 mph - N/A   Overcast
6:35 AM 60.8 °F 51.8 °F 72% 30.09 in 10.0 mi North 6.9 mph - N/A   Overcast
6:55 AM 60.8 °F 51.8 °F 72% 30.10 in 10.0 mi North 4.6 mph - N/A   Overcast
7:15 AM 62.6 °F 51.8 °F 68% 30.10 in 10.0 mi North 6.9 mph - N/A   Overcast
7:35 AM 62.6 °F 51.8 °F 68% 30.11 in 10.0 mi North 9.2 mph - N/A   Mostly Cloudy
7:55 AM 62.6 °F 50.0 °F 63% 30.11 in 10.0 mi North 11.5 mph - N/A   Clear
8:15 AM 62.6 °F 51.8 °F 68% 30.11 in 10.0 mi North 10.4 mph - N/A   Clear
8:35 AM 64.4 °F 51.8 °F 64% 30.11 in 10.0 mi NNE 11.5 mph - N/A   Clear
8:55 AM 64.4 °F 51.8 °F 64% 30.11 in 10.0 mi North 8.1 mph - N/A   Clear
9:15 AM 66.2 °F 50.0 °F 56% 30.11 in 10.0 mi North 9.2 mph 16.1 mph N/A   Clear
9:35 AM 68.0 °F 48.2 °F 49% 30.11 in 10.0 mi North 6.9 mph - N/A   Clear
9:55 AM 68.0 °F 48.2 °F 49% 30.11 in 10.0 mi NNW 11.5 mph 16.1 mph N/A   Clear
10:15 AM 68.0 °F 46.4 °F 46% 30.11 in 10.0 mi NNE 10.4 mph - N/A   Clear
10:35 AM 69.8 °F 44.6 °F 40% 30.11 in 10.0 mi North 13.8 mph 21.9 mph N/A   Clear
10:55 AM 69.8 °F 44.6 °F 40% 30.11 in 10.0 mi NNW 13.8 mph 18.4 mph N/A   Clear
11:15 AM 69.8 °F 46.4 °F 43% 30.11 in 10.0 mi North 15.0 mph 19.6 mph N/A   Clear
11:35 AM 69.8 °F 44.6 °F 40% 30.11 in 10.0 mi North 12.7 mph 20.7 mph N/A   Clear
11:55 AM 69.8 °F 46.4 °F 43% 30.10 in 10.0 mi North 11.5 mph 17.3 mph N/A   Scattered Clouds
12:15 PM 69.8 °F 46.4 °F 43% 30.10 in 10.0 mi North 11.5 mph 18.4 mph N/A   Scattered Clouds
12:35 PM 71.6 °F 50.0 °F 46% 30.10 in 10.0 mi NNW 11.5 mph 16.1 mph N/A   Scattered Clouds
12:55 PM 69.8 °F 50.0 °F 49% 30.10 in 10.0 mi North 11.5 mph 17.3 mph N/A   Mostly Cloudy
1:15 PM 71.6 °F 48.2 °F 43% 30.10 in 10.0 mi North 9.2 mph 17.3 mph N/A   Mostly Cloudy
1:35 PM 71.6 °F 46.4 °F 41% 30.10 in 10.0 mi North 11.5 mph - N/A   Mostly Cloudy
1:55 PM 71.6 °F 46.4 °F 41% 30.09 in 10.0 mi North 12.7 mph 21.9 mph N/A   Scattered Clouds
2:15 PM 73.4 °F 48.2 °F 41% 30.09 in 10.0 mi NNE 9.2 mph 17.3 mph N/A   Scattered Clouds
2:35 PM 73.4 °F 46.4 °F 38% 30.09 in 10.0 mi NNE 11.5 mph 16.1 mph N/A   Scattered Clouds
2:55 PM 73.4 °F 46.4 °F 38% 30.09 in 10.0 mi NNW 10.4 mph - N/A   Scattered Clouds
3:15 PM 73.4 °F 48.2 °F 41% 30.09 in 10.0 mi NNW 12.7 mph 18.4 mph N/A   Mostly Cloudy
3:35 PM 73.4 °F 48.2 °F 41% 30.09 in 10.0 mi North 6.9 mph - N/A   Mostly Cloudy
3:55 PM 73.4 °F 48.2 °F 41% 30.09 in 10.0 mi North 11.5 mph 19.6 mph N/A   Mostly Cloudy
4:15 PM 73.4 °F 46.4 °F 38% 30.09 in 10.0 mi North 10.4 mph - N/A   Scattered Clouds
4:35 PM 73.4 °F 50.0 °F 44% 30.09 in 10.0 mi NNW 11.5 mph 16.1 mph N/A   Scattered Clouds
4:55 PM 73.4 °F 48.2 °F 41% 30.09 in 10.0 mi NNW 11.5 mph 16.1 mph N/A   Scattered Clouds
5:15 PM 73.4 °F 46.4 °F 38% 30.09 in 10.0 mi North 10.4 mph 17.3 mph N/A   Clear
5:35 PM 73.4 °F 46.4 °F 38% 30.09 in 10.0 mi NNW 9.2 mph - N/A   Clear
5:55 PM 73.4 °F 46.4 °F 38% 30.09 in 10.0 mi NNW 9.2 mph - N/A   Clear
6:15 PM 73.4 °F 46.4 °F 38% 30.09 in 10.0 mi NNW 6.9 mph - N/A   Clear
6:35 PM 71.6 °F 46.4 °F 41% 30.09 in 10.0 mi NNW 8.1 mph - N/A   Clear
6:55 PM 71.6 °F 46.4 °F 41% 30.09 in 10.0 mi NNW 5.8 mph - N/A   Clear
7:15 PM 71.6 °F 46.4 °F 41% 30.09 in 10.0 mi NW 4.6 mph - N/A   Clear
7:35 PM 71.6 °F 48.2 °F 43% 30.09 in 10.0 mi NW 3.5 mph - N/A   Clear
7:55 PM 69.8 °F 48.2 °F 46% 30.09 in 10.0 mi Calm Calm - N/A   Clear
8:15 PM 68.0 °F 50.0 °F 52% 30.09 in 10.0 mi Calm Calm - N/A   Clear
8:35 PM 64.4 °F 51.8 °F 64% 30.09 in 10.0 mi Calm Calm - N/A   Clear
8:55 PM 62.6 °F 53.6 °F 72% 30.09 in 10.0 mi Calm Calm - N/A   Clear
9:15 PM 62.6 °F 55.4 °F 77% 30.09 in 10.0 mi WSW 3.5 mph - N/A   Clear
9:35 PM 62.6 °F 51.8 °F 68% 30.09 in 10.0 mi West 4.6 mph - N/A   Clear
9:55 PM 62.6 °F 50.0 °F 63% 30.09 in 10.0 mi West 4.6 mph - N/A   Clear
10:15 PM 62.6 °F 50.0 °F 63% 30.09 in 10.0 mi West 4.6 mph - N/A   Scattered Clouds
10:35 PM 64.4 °F 50.0 °F 59% 30.09 in 10.0 mi West 5.8 mph - N/A   Scattered Clouds
10:55 PM 64.4 °F 50.0 °F 59% 30.09 in 10.0 mi West 8.1 mph - N/A   Scattered Clouds
11:15 PM 64.4 °F 50.0 °F 59% 30.09 in 10.0 mi WNW 6.9 mph - N/A   Scattered Clouds
11:35 PM 64.4 °F 50.0 °F 59% 30.10 in 10.0 mi WNW 6.9 mph - N/A   Clear
11:55 PM 64.4 °F 51.8 °F 64% 30.10 in 10.0 mi NW 4.6 mph - N/A   Clear